Estación de Curicó

Ultimos registro cada 15 minutos 83
Estación Fecha / Hora Temperatura Humedad Lluvia Velocidad Dirección Radiación Presion
83 Curicó 03-05-2026 20:30 10,7 91 0 0 131 0,6 991,9
82 Curicó 03-05-2026 20:15 10,9 90,5 0 0 131 0,6 991,9
81 Curicó 03-05-2026 20:00 11,1 90 0 0 131 0,6 992
80 Curicó 03-05-2026 19:45 11 89,5 0 0 131 0,6 992,1
79 Curicó 03-05-2026 19:30 11,1 88,7 0 0 131 0,6 992
78 Curicó 03-05-2026 19:15 11,5 88 0 0 131 0,6 991,7
77 Curicó 03-05-2026 19:00 11,8 87,4 0 0 132 0,6 991,9
76 Curicó 03-05-2026 18:45 11,8 85,7 0 0 132 0,6 991,9
75 Curicó 03-05-2026 18:30 12 84 0 0 132 0,6 991,8
74 Curicó 03-05-2026 18:15 12,8 81,4 0 0 132 0,6 991,5
73 Curicó 03-05-2026 18:00 13,9 78,7 0 0 132 3,1 991,5
72 Curicó 03-05-2026 17:45 14,8 74,3 0 0 132 18,1 991,6
71 Curicó 03-05-2026 17:30 16 68,8 0 0 132 29,4 991,6
70 Curicó 03-05-2026 17:15 16,9 63,4 0 0 132 46,9 991,7
69 Curicó 03-05-2026 17:00 18,1 57,7 0 0 132 90,6 991,4
68 Curicó 03-05-2026 16:45 19 54,8 0 0 145 118,1 991,1
67 Curicó 03-05-2026 16:30 20,1 55,7 0 0 199 206,9 991
66 Curicó 03-05-2026 16:15 18,9 56,5 0 0,3 260 213,1 991,1
65 Curicó 03-05-2026 16:00 18,8 57,9 0 0 275 273,1 991
64 Curicó 03-05-2026 15:45 18,4 59,9 0 0 275 259,4 991,1
63 Curicó 03-05-2026 15:30 17,3 63 0 0,3 260 150,6 991,2
62 Curicó 03-05-2026 15:15 17,2 67 0 0,3 251 196,9 991,4
61 Curicó 03-05-2026 15:00 16,7 65,7 0 0 222 143,1 991,2
60 Curicó 03-05-2026 14:45 16,5 67,4 0 0,3 216 161,9 991,3
59 Curicó 03-05-2026 14:30 16,2 68,3 0 0 150 136,9 991,4
58 Curicó 03-05-2026 14:15 16,1 67,3 0 0,3 159 136,9 991,4
57 Curicó 03-05-2026 14:00 15,9 68,1 0 0,7 226 124,4 991,4
56 Curicó 03-05-2026 13:45 16,3 68,7 0 0,3 237 131,9 991,4
55 Curicó 03-05-2026 13:30 16,7 67,3 0 0,3 237 170,6 991,5
54 Curicó 03-05-2026 13:15 16,7 67,1 0 0,3 247 199,4 991,6
53 Curicó 03-05-2026 13:00 16,8 67 0 0,3 329 199,4 991,6
52 Curicó 03-05-2026 12:45 17,2 65,6 0 0 104 208,1 991,4
51 Curicó 03-05-2026 12:30 17,1 67,4 0 0,3 156 220,6 991,4
50 Curicó 03-05-2026 12:15 16,8 66,9 0 0,3 236 356,9 991,6
49 Curicó 03-05-2026 12:00 16,3 67,9 0 0,3 275 258,1 991,7
48 Curicó 03-05-2026 11:45 16,5 66,8 0 0 21 239,4 991,9
47 Curicó 03-05-2026 11:30 16,6 69,9 0 0,3 261 346,9 991,9
46 Curicó 03-05-2026 11:15 16,1 72,1 0 0,3 299 381,9 992,1
45 Curicó 03-05-2026 11:00 15,8 73,2 0 0 329 239,4 992,4
44 Curicó 03-05-2026 10:45 16,5 74,6 0 0,3 51 578,1 991,5
43 Curicó 03-05-2026 10:30 15,1 81,5 0 0,3 350 485,6 991,5
42 Curicó 03-05-2026 10:15 14,1 89,3 0 0 327 441,9 991,6
41 Curicó 03-05-2026 10:00 13,6 92,8 0 0 323 383,1 991,9
40 Curicó 03-05-2026 09:45 11,5 94,6 0 0 272 360,6 992,3
39 Curicó 03-05-2026 09:30 10,3 95,7 0 0,3 300 276,9 992,3
38 Curicó 03-05-2026 09:15 8,5 96,6 0 0,3 295 274,4 992,4
37 Curicó 03-05-2026 09:00 8,2 96,4 0 0 167 211,9 992,4
36 Curicó 03-05-2026 08:45 6,9 96,9 0 0 152 226,9 992
35 Curicó 03-05-2026 08:30 5,7 97,7 0 0 152 176,9 991,9
34 Curicó 03-05-2026 08:15 4,8 97,3 0 0 153 129,4 992
33 Curicó 03-05-2026 08:00 2,9 97,7 0 0 153 83,1 991,8
32 Curicó 03-05-2026 07:45 0,5 97,8 0 0 153 33,1 991,7
31 Curicó 03-05-2026 07:30 0,3 97,8 0 0 153 5,6 991,2
30 Curicó 03-05-2026 07:15 0 97,7 0 0 153 0,6 991,1
29 Curicó 03-05-2026 07:00 0,1 97,6 0 0 153 0,6 991
28 Curicó 03-05-2026 06:45 1 97,7 0 0 153 0,6 990,9
27 Curicó 03-05-2026 06:30 1,3 97,8 0 0 153 0,6 990,7
26 Curicó 03-05-2026 06:15 0,1 97,6 0 0 153 0,6 991
25 Curicó 03-05-2026 06:00 0,3 97,4 0 0 153 0,6 990,9
24 Curicó 03-05-2026 05:45 1,1 97,7 0 0 153 0,6 990,7
23 Curicó 03-05-2026 05:30 0,5 97,2 0,2 0 153 0,6 991
22 Curicó 03-05-2026 05:15 1,7 97,4 0 0 32 0,6 991,4
21 Curicó 03-05-2026 05:00 1,2 97,4 0 0 358 0,6 991,4
20 Curicó 03-05-2026 04:45 0,8 97,4 0 0 358 0,6 991,4
19 Curicó 03-05-2026 04:30 0,5 97,3 0 0 358 0,6 991,5
18 Curicó 03-05-2026 04:15 0,4 97 0 0 358 0,6 991,6
17 Curicó 03-05-2026 04:00 0,7 97 0 0 358 0,6 991,7
16 Curicó 03-05-2026 03:45 1 96,7 0 0 358 0,6 991,7
15 Curicó 03-05-2026 03:30 1,2 96,8 0 0 358 0,6 991,5
14 Curicó 03-05-2026 03:15 1,5 96,8 0 0 358 0,6 991,6
13 Curicó 03-05-2026 03:00 1,2 96,6 0 0 358 0,6 991,8
12 Curicó 03-05-2026 02:45 1,6 96,5 0 0 358 0,6 991,6
11 Curicó 03-05-2026 02:30 1,8 96,6 0 0 358 0,6 991,7
10 Curicó 03-05-2026 02:15 2,2 96,6 0 0 358 0,6 991,5
9 Curicó 03-05-2026 02:00 1,8 96,4 0 0 358 0,6 992
8 Curicó 03-05-2026 01:45 1,6 96,2 0 0 358 0,6 991,6
7 Curicó 03-05-2026 01:30 2,2 96,1 0 0 358 0,6 991,3
6 Curicó 03-05-2026 01:15 2,2 95,9 0 0 358 0,6 991,3
5 Curicó 03-05-2026 01:00 2,7 95,9 0 0 358 0,6 991,4
4 Curicó 03-05-2026 00:45 3 96,1 0 0 358 0,6 991,3
3 Curicó 03-05-2026 00:30 2,9 95,8 0 0 358 0,6 991,3
2 Curicó 03-05-2026 00:15 2,5 95,8 0 0 358 0,6 991,7
1 Curicó 03-05-2026 00:00 2,4 95,6 0 0 358 0,6 991,6